TimeMDT,TemperatureF,Dew PointF,Humidity,Sea Level PressureIn,VisibilityMPH,Wind Direction,Wind SpeedMPH,Gust SpeedMPH,PrecipitationIn,Events,Conditions,WindDirDegrees,DateUTC
12:53 AM,41.0,27.0,57,30.29,10.0,West,5.8,-,N/A,,Overcast,280,2012-10-05 06:53:00
2:53 AM,39.0,28.9,67,30.28,10.0,WNW,10.4,-,N/A,,Overcast,290,2012-10-05 08:53:00
3:53 AM,37.9,28.9,70,30.29,10.0,WNW,4.6,-,N/A,,Overcast,290,2012-10-05 09:53:00
4:53 AM,36.0,32.0,86,30.29,10.0,East,8.1,-,N/A,,Overcast,90,2012-10-05 10:53:00
5:53 AM,36.0,32.0,86,30.30,10.0,East,5.8,-,N/A,,Overcast,90,2012-10-05 11:53:00
6:29 AM,35.6,32.0,87,30.26,10.0,East,4.6,-,N/A,,Overcast,90,2012-10-05 12:29:00
6:53 AM,36.0,32.0,86,30.32,10.0,ENE,3.5,-,N/A,,Overcast,60,2012-10-05 12:53:00
7:53 AM,37.0,32.0,82,30.33,10.0,Calm,Calm,-,N/A,,Overcast,0,2012-10-05 13:53:00
8:53 AM,37.9,32.0,79,30.35,10.0,Calm,Calm,-,N/A,,Overcast,0,2012-10-05 14:53:00
10:21 AM,39.2,30.2,70,30.30,10.0,East,3.5,-,N/A,,Overcast,90,2012-10-05 16:21:00
10:29 AM,39.2,30.2,70,30.30,10.0,Calm,Calm,-,N/A,,Overcast,0,2012-10-05 16:29:00
10:53 AM,41.0,28.9,62,30.35,10.0,Calm,Calm,-,N/A,,Overcast,0,2012-10-05 16:53:00
11:53 AM,45.0,28.9,53,30.34,10.0,North,4.6,-,N/A,,Overcast,350,2012-10-05 17:53:00
12:04 PM,44.6,26.6,49,30.30,10.0,NNW,3.5,-,N/A,,Overcast,340,2012-10-05 18:04:00
12:53 PM,45.0,27.0,49,30.32,10.0,East,3.5,-,N/A,,Overcast,90,2012-10-05 18:53:00
1:53 PM,46.0,24.1,42,30.30,10.0,NNE,3.5,-,N/A,,Overcast,30,2012-10-05 19:53:00
2:53 PM,46.9,21.0,36,30.30,10.0,NNW,13.8,-,N/A,,Overcast,340,2012-10-05 20:53:00
3:53 PM,46.9,18.0,32,30.28,10.0,NNW,13.8,21.9,N/A,,Clear,330,2012-10-05 21:53:00
4:53 PM,44.1,19.0,37,30.30,10.0,NNW,19.6,26.5,N/A,,Overcast,340,2012-10-05 22:53:00
5:53 PM,43.0,21.0,42,30.32,10.0,NW,19.6,-,N/A,,Overcast,320,2012-10-05 23:53:00
6:53 PM,41.0,24.1,51,30.35,10.0,NNW,17.3,26.5,N/A,,Overcast,330,2012-10-06 00:53:00
7:53 PM,37.9,24.1,57,30.37,10.0,NW,16.1,-,N/A,,Overcast,320,2012-10-06 01:53:00
8:53 PM,37.0,24.1,59,30.37,10.0,NNW,24.2,-,N/A,,Overcast,330,2012-10-06 02:53:00
9:53 PM,36.0,23.0,59,30.37,10.0,NNW,20.7,-,N/A,,Overcast,330,2012-10-06 03:53:00
10:53 PM,35.1,21.9,59,30.38,10.0,NNW,20.7,27.6,N/A,,Overcast,340,2012-10-06 04:53:00
11:53 PM,34.0,21.9,61,30.38,10.0,NW,15.0,-,N/A,,Mostly Cloudy,320,2012-10-06 05:53:00